GFSFLT1_prec_radar_102.txt.gz
Reflectivity
-20 -20 -20 -20 -20 -20 -20 -20 -20 -20 -20 -20 -20 -20 5 -20 -20 -20 -20 0 -20 -5 -3 -19 -2 6 6 9 2 -2 -2 -3
-20 -20 -20 -20 -20 -20 -20 -20 -20 -20 -20 -20 -20 -20 -4 -20 -20 -20 -20 2 2 -0 -4 -20 -13 2 -14 2 -1 -1 0 -4
-20 -20 -20 -20 -20 -20 -20 -20 -20 -20 -20 -20 -20 -20 -20 -20 -20 -14 -20 -0 8 1 -20 -20 -8 -9 -20 0 8 -14 8 5
-20 -20 -20 -20 -20 -20 -20 -20 -20 -20 -20 -20 -20 -20 -20 -1 7 -4 2 5 9 4 -20 -18 3 10 -7 9 5 0 -6 4
-20 -20 -20 -20 -20 -20 -20 -20 -20 -20 -20 -20 -20 -20 -18 -20 -20 -4 6 -16 -10 3 0 -18 -20 1 -1 5 2 6 9 -11
-20 -20 -20 -20 -20 -20 -20 -20 -20 -20 -20 -20 0 -20 -20 -20 -19 8 -1 -19 -16 5 -19 26 42 -1 -17 -4 9 12 11 4
-20 -20 -20 -20 -20 -20 -20 -20 -20 -20 -20 -20 -12 7 -20 -11 -9 23 13 -1 -16 -2 0 10 9 0 -1 -3 -2 1 12 10
-20 -20 -20 -20 -20 -20 -20 -20 -20 -20 -20 -20 -20 3 -20 9 3 15 9 21 5 -3 -8 -20 -20 3 11 5 11 10 9 12
-20 -20 -20 -20 -20 -20 -20 -20 -20 5 -4 -10 -20 -1 -20 13 13 16 -17 9 9 14 28 -20 -20 4 21 15 8 18 10 24
-20 -20 -20 -20 -20 -20 -20 -20 -13 4 14 14 -15 16 18 18 14 15 15 17 14 -20 4 0 19 30 6 5 8 15 5 -3
-20 -20 -20 -20 -20 -20 -20 -20 -16 -10 4 21 15 2 -17 -6 7 13 -20 13 6 7 8 3 27 27 27 26 2 -3 -0 8
-20 -20 -20 -20 -20 -20 -20 -20 -18 -10 13 21 25 20 18 15 10 -3 10 -12 9 -20 -20 -4 10 29 25 33 -13 -16 9 -15
-20 -20 -20 -20 -20 -20 -20 -19 2 6 12 12 21 27 22 13 18 28 14 8 11 1 -1 12 27 18 20 -2 16 -18 5 9
-20 -20 -20 -20 -20 -20 -20 1 18 13 4 20 13 17 28 27 29 32 29 18 8 15 9 8 29 27 23 -15 -3 -10 -9 -16
-20 -20 -20 -20 -20 -20 -20 -1 38 43 32 11 21 28 24 27 12 39 26 30 14 -6 1 -15 25 15 -5 1 10 12 2 10
-20 -20 -20 -20 -20 -20 -20 -14 13 11 26 35 24 30 24 45 34 24 28 23 16 -20 -20 -2 11 -20 -20 -16 4 4 6 -10
-20 -20 -20 -20 -20 -20 -20 -20 3 7 20 21 30 17 23 5 20 11 12 25 15 12 14 12 -11 -20 7 13 12 -20 -16 -7
-1 -1 -1 -15 -3 -3 -5 -1 -2 4 -10 -8 33 36 28 17 21 29 35 27 23 27 0 4 6 10 18 12 4 -9 8 -19
-2 0 0 -1 -4 -20 -20 -20 -19 -6 -15 2 13 22 25 32 29 3 29 37 43 44 30 22 15 -2 5 13 15 -9 4 -18

GFSFLT1_prec_radar_105.txt.gz
Reflectivity
-20 -20 -20 -20 -20 -20 -20 -20 -20 -20 -20 -20 -20 -20 -20 -20 -20 -20 -20 -20 -20 5 -3 -2 -2 -16 10 -0 -17 11 -9 10
-20 -20 -20 -20 -20 -20 -20 -20 -20 -20 -20 -20 -20 -20 -20 -20 -20 -20 -20 -8 8 8 1 9 1 -19 5 -8 6 9 5 -2
-20 -20 -20 -20 -20 -20 -20 -20 -20 -20 -20 -20 -20 -20 -20 -20 -20 -20 -20 7 13 5 2 6 5 -6 6 -9 14 2 11 -20
-20 -20 -20 -20 -20 -20 -20 -20 -20 -20 -20 -20 -20 -20 -20 -20 -20 -20 -20 13 6 24 18 22 5 -8 2 -12 -8 -19 -6 -7
-20 -20 -20 -20 -20 -20 -20 -20 -20 -20 -20 -20 -20 -20 -20 -20 -20 -20 -20 -20 -9 14 -3 3 6 3 2 -3 -18 -11 6 -11
-20 -20 -20 -20 -20 -20 -20 -20 -20 -20 -20 -20 -20 -9 -20 -20 -20 -20 -20 -11 -1 13 15 7 0 1 7 0 2 -16 10 8
-20 -20 -20 -20 -20 -20 -20 -20 -20 -20 -20 -20 -18 -3 -20 -20 -20 -20 -20 -20 -20 -8 18 8 4 10 -17 -3 26 34 -5 -1
-20 -20 -20 -20 -20 -20 -20 -20 -20 -20 -20 -20 -15 -20 -0 -12 -20 -20 6 16 7 -12 10 8 8 24 -20 -8 17 39 32 5
-20 -20 -20 -20 -20 -20 -20 -20 -20 -20 -20 -20 -17 -16 -20 -20 -14 -20 -13 7 -6 0 13 22 7 7 -0 -11 -1 14 24 4
-20 -20 -20 -20 -20 -20 -20 -20 -20 -20 -20 -20 14 9 3 -2 -17 -18 -20 8 -14 -20 16 13 23 23 2 3 -20 8 12 11
-20 -20 -20 -20 -20 -20 -16 -20 -20 -20 -20 -15 4 8 8 -15 17 4 -14 -20 8 -20 -7 7 7 0 5 -15 11 26 31 29
-20 -20 -20 -14 -20 -18 -20 -20 -20 -20 -20 -17 15 -1 -17 27 24 37 -20 -12 -5 20 -2 18 -19 -6 -11 1 19 41 31 25
-20 -20 -20 -20 -0 -20 -20 -20 -11 -20 -20 -18 -17 -13 -2 -10 30 -16 -15 -9 -17 37 -17 -10 4 4 -9 19 31 21 23 9
-20 -20 -20 -20 -20 -20 -20 -20 -20 -20 -20 -20 -1 -4 3 5 1 5 2 8 3 1 -16 13 9 2 2 12 32 43 32 28
-20 -20 -20 -20 -20 -20 -20 -2 -20 -20 -20 -14 21 -4 14 16 16 26 20 23 15 10 27 19 6 9 14 -6 13 20 29 17
-20 -20 -20 -20 -20 -20 -20 -16 -13 -16 1 17 36 39 25 40 25 41 27 23 24 31 25 9 -9 -11 -3 -17 3 20 -11 5
-20 -20 -20 -20 -20 -20 -5 -8 -2 -17 11 12 13 9 26 15 14 18 39 28 39 10 19 15 18 -16 12 -4 9 -19 -7 -20
-2 -20 -7 -5 -2 -20 -3 -9 -20 -10 18 13 7 5 29 36 27 28 37 35 30 37 30 21 15 -19 16 10 6 -20 -19 -16
-1 -1 2 1 5 -3 -5 -20 -20 -7 10 14 15 9 21 33 29 26 12 -13 5 33 35 28 29 9 19 14 3 -16 0 15

GFSFLT1_prec_radar_108.txt.gz
Reflectivity
-20 -20 -20 -20 -20 -20 -20 -20 -20 -20 -20 -20 -20 -20 -20 -20 -20 -20 -20 -20 -20 -20 -17 -7 -20 -20 -20 -20 -20 -20 -20 -20
-20 -20 -20 -20 -20 -20 -20 -20 -20 -20 -20 -20 -20 -20 -20 -20 -20 -20 -20 -20 -20 -20 -20 -12 11 1 -20 -20 -20 -20 -20 -20
-20 -20 -20 -20 -20 -20 -20 -20 -20 -20 -20 -20 -20 -20 -20 -20 -20 -20 -20 -20 -13 -12 -19 -20 15 9 17 18 -15 -13 0 -0
-20 -20 -20 -20 -20 -20 -20 -20 -20 -20 -20 -20 -20 -20 -20 -20 -20 -20 -20 -13 -20 -20 -7 -13 -7 4 48 37 19 -20 -20 -8
-20 -20 -20 -20 -20 -20 -20 -20 -20 -20 -20 -20 -20 -20 -20 -20 -20 -20 -20 -20 -20 -20 -20 -20 -20 29 18 36 44 19 -10 -20
-20 -20 -20 -20 -20 -20 -20 -20 -20 -20 -20 -20 -20 -20 -20 -20 -20 -20 -20 -20 -6 -20 -17 -20 20 29 -20 -20 6 8 -16 -20
-20 -20 -20 -20 -20 -20 -20 -20 -20 -20 -20 -20 -20 -20 -20 -20 -20 -20 -20 -20 -20 -1 8 -6 11 11 4 -20 -15 30 13 -20
-9 -20 -20 -11 -20 -19 -20 -20 -20 -20 -20 -20 -7 7 1 -18 -20 -20 -20 -20 -20 29 41 26 0 -6 2 -20 8 44 31 -4
-20 -20 -20 -20 -20 -20 -20 -20 -20 -20 -20 -20 -20 11 15 -4 7 -12 -20 -20 -20 29 45 26 16 2 13 17 7 38 -17 -20
-2 3 -4 -18 -20 -20 -20 -20 -20 -20 -20 -20 -20 3 8 17 12 14 -9 -20 -20 -13 11 -10 -20 9 16 19 -13 39 27 -1
-14 -20 -20 -20 -20 -20 -20 -20 -20 -20 -20 -20 -20 -5 -8 17 15 22 10 -20 -13 -14 -6 -8 -10 -20 2 25 -11 -7 -6 -1
-20 -20 -20 -20 -20 -20 -20 -20 -20 -20 -20 -20 -20 -20 -20 -2 12 20 -14 16 13 -11 35 -10 -1 -2 1 18 5 18 30 -1
-20 -20 -20 -20 -20 -20 -20 -20 -20 -20 -20 -7 -20 -20 -20 -4 -20 -20 22 -6 30 9 -9 11 0 5 9 -1 23 -20 -12 -20
-20 -20 -20 -20 -20 -20 -20 -20 -13 -20 -20 -20 -20 -20 -20 -20 -14 -18 2 4 36 33 35 37 12 31 13 9 -5 -20 -20 -17
-20 -20 -20 -20 -20 -20 -20 -20 -20 -20 -20 -3 -1 -20 -20 -18 7 -1 -5 15 16 -4 21 35 31 39 -18 -6 -17 -20 4 18
-20 -20 -20 -20 -20 -20 -20 -20 -20 -6 -20 -17 -17 -20 -20 -20 -10 -13 -10 -6 12 9 28 -3 29 35 29 11 -20 -14 -7 -12
-20 -20 -20 -1 -20 -15 -20 -0 -4 -20 -18 -16 -17 -8 -6 -2 8 10 18 25 34 39 22 35 31 28 20 -15 9 22 -12 8
-15 -14 1 -2 6 7 3 0 -6 -3 -8 -14 -15 -9 -20 1 16 20 20 6 11 30 28 33 31 24 28 27 27 17 25 -7
0 3 5 3 10 2 2 -6 -9 -2 -11 -19 4 18 13 -2 12 15 19 15 19 24 32 29 36 40 25 29 23 17 -2 7

GFSFLT1_prec_radar_111.txt.gz
Reflectivity
-20 -20 -20 -20 -20 -20 -20 -20 -20 -20 -20 -20 -20 -20 -20 -20 -20 -20 -20 33 -11 20 7 -1 13 2 -20 3 -20 -20 -20 -20
-20 -20 -20 -20 -20 -20 -20 -20 -20 -20 -20 -20 -20 -20 -20 -20 -20 -20 -20 -20 -20 -20 -20 -20 -20 -2 -20 -20 29 -20 -20 -18
-20 -20 -20 -20 -20 -20 -20 -20 -20 -20 -20 -20 -20 -20 -20 -20 -20 -20 -20 -20 -20 -20 -20 -20 -20 -16 33 -6 33 35 -7 17
-20 -20 -20 -20 -20 -20 -20 -20 -20 -20 -20 -20 -20 -20 -20 -20 -20 -20 -20 -20 -20 -20 -1 17 -20 -6 -0 12 16 36 38 35
-12 -20 -20 -20 -20 -20 -20 -20 -20 -20 -20 -20 -20 -20 -20 -20 -20 -20 -20 -20 -20 -20 -20 10 -12 -12 24 14 12 30 37 41
-20 -20 -18 -18 -20 7 -20 -20 -20 -20 -20 -20 -20 -20 -20 -20 -20 -20 -20 -20 -20 -20 -20 -20 19 26 9 -20 25 -20 -20 -3
-20 -19 -17 12 -16 -20 -20 -13 -3 -10 -20 -20 -20 -20 -20 -20 -20 -20 -20 -20 -20 -20 -20 -20 -20 -17 27 8 12 26 -20 -20
-20 -20 1 -12 11 12 -20 -18 -1 -5 -17 -15 -8 -17 -20 -20 -20 -20 -20 -20 -20 -20 -20 -20 -20 1 29 32 30 13 16 20
12 12 -5 -20 -20 -20 -20 -20 -20 -20 -18 -19 -20 -20 -20 -20 -20 -15 -8 -2 -10 -20 -20 -20 -20 -20 -19 13 30 32 7 -20
7 5 -20 -20 -5 -15 -18 -19 -20 -20 -20 -20 -20 -20 -20 -20 -20 6 2 7 12 0 -20 -20 -20 -20 -13 19 31 32 -16 -14
14 -1 -9 7 -8 -12 -20 -20 -19 -20 -20 -20 -20 -20 -20 -20 5 -0 10 7 14 7 -20 -20 -20 -20 -2 -7 17 16 -15 17
17 5 -15 -20 -20 -20 -20 -20 -20 -20 -20 -20 -20 -20 -20 -20 -20 16 15 9 16 -3 -20 -17 -20 -18 28 26 4 -14 12 5
0 -1 -20 -20 -20 -20 -20 -20 -20 -20 -20 -20 -20 -20 -20 -20 -20 -20 -14 -19 -20 -20 18 5 -10 5 28 25 35 27 14 17
-20 -20 -20 -20 -20 -20 -20 -20 -20 -20 -20 -20 -20 -20 -20 -20 -20 -20 -20 -20 -20 -20 -20 -20 24 13 33 6 22 22 -4 -11
-20 -20 -20 -20 -20 -20 -20 -20 -20 -20 -20 -20 -20 -19 -17 -20 -20 -20 -20 -20 -20 -20 -18 -18 -20 28 41 32 26 22 7 21
-20 -20 -20 -10 -20 -20 -20 -20 -20 -20 -20 -20 -19 -12 -14 -20 -20 -20 -20 -20 -20 -20 -7 21 11 37 35 34 23 27 -5 28
-20 -20 -20 -20 -12 1 -20 -3 -13 -20 -20 0 -5 -13 3 -18 -20 -20 -20 -7 6 -12 -20 -20 -12 15 24 27 31 30 23 27
0 4 0 1 -3 6 -2 -1 -8 -17 -17 -6 -1 -3 -7 -7 -20 -20 -20 -14 1 6 -13 -6 -10 20 27 24 28 24 22 22
-8 -13 -11 -14 -1 -10 4 10 -4 -9 -17 -14 -9 -17 -20 -6 -2 -12 -20 -18 -5 1 5 3 13 25 25 36 45 27 27 30

GFSFLT1_prec_radar_114.txt.gz
Reflectivity
-20 -20 -20 -20 -20 -20 -20 -20 -20 -20 -20 -20 -20 -20 -20 -20 -20 -20 -20 -20 -20 -17 -15 -20 34 35 24 32 16 4 -16 -20
-20 -20 -20 -20 -20 -20 -20 -20 -20 -20 -20 -20 -20 -20 -20 -20 -20 -20 -20 -20 -20 -20 -20 -6 -3 1 -20 -20 35 -10 35 6
-18 -20 -20 -20 -20 -20 -20 -20 -20 -20 -20 -20 -20 -20 -20 -20 -20 -20 -20 -20 -20 -20 -20 -20 2 10 -13 -11 33 23 16 30
-1 -14 -20 -20 -20 -20 -20 -20 -20 -20 -20 -20 -20 -20 -20 -20 -20 -20 -20 -20 -20 -20 -20 -20 -20 8 11 3 16 27 -3 28
-16 6 -1 -20 -20 -20 -20 -20 -17 -20 -20 -20 -20 -20 -20 -20 -20 -20 -20 -20 -20 -20 -20 -20 -20 -20 -16 11 -10 -14 -2 -20
26 3 -15 -20 -20 -20 -20 -20 -20 4 -17 -20 -20 -20 -20 -20 -20 -20 -20 -20 -20 -20 -20 -20 -20 -20 -20 11 14 -15 21 7
27 13 -4 -20 -20 -20 -20 -19 -19 -20 -20 -4 -20 -20 -20 -20 -20 -20 -20 -20 -20 -20 -20 -20 -20 -20 -20 -20 8 -10 -3 16
15 10 -3 -11 -20 -20 -20 1 6 7 -8 -7 -15 -20 -20 -20 -20 -20 -20 -20 -20 -20 -20 -20 -20 -20 -20 -17 13 -4 9 14
20 7 10 0 -20 -16 -4 -1 -20 -20 -13 -3 -20 -20 -20 -20 -19 -20 -20 -20 -20 -20 -20 -20 -14 -7 -20 -20 22 -8 13 22
16 9 20 14 9 -4 -20 -19 -19 -18 -20 -19 -19 -19 -20 -20 -20 -20 -6 -20 -20 -20 -20 -20 -13 16 -12 -20 7 13 21 16
34 30 28 15 -3 -18 -6 -19 -20 -20 -20 -8 12 6 -20 -20 -20 -20 -20 -20 -20 -19 -15 -20 -2 1 -5 -20 -20 -20 5 -20
21 16 12 17 12 -12 -20 -20 -20 -20 -20 -20 -20 -20 -20 -20 -20 -20 -20 -20 -20 -20 -2 9 8 12 -1 -20 -20 -20 -12 13
6 -19 -9 6 0 -7 -20 -20 -20 -20 -20 3 5 -20 -20 -20 -20 -20 -20 -20 -20 -20 -20 -20 -20 -20 -16 4 21 -20 -20 28
15 5 -20 -20 -20 -20 -20 -20 -20 -20 -19 -20 -12 -20 -20 -20 -20 -20 -20 -20 -20 -20 -20 -20 -20 -20 -20 13 25 27 24 20
-18 3 -10 -20 -20 -20 -20 -20 -20 -20 -20 -17 -13 -20 -20 -20 -20 -20 -20 -20 -20 -20 -20 -20 -20 -20 -20 -20 -20 6 20 7
-19 -20 -20 -7 -6 -20 -20 -20 -20 -20 -20 -16 -18 -4 2 -6 -13 -20 -20 -20 -20 -5 13 9 6 -10 3 8 2 9 33 31
-12 -20 -20 -20 -11 -15 -20 -20 -20 -20 -20 -20 -20 -20 -20 1 -20 -19 -20 -20 -20 5 -4 2 -6 -1 20 12 19 25 28 42
-6 1 -2 -1 -1 2 -3 -20 -20 -20 -20 -20 -20 -20 -20 -18 -17 -19 -9 1 -11 -20 -9 5 6 3 15 28 28 20 14 35
-13 -20 -6 -5 9 -3 -10 -20 -20 -20 -20 -20 -20 -20 -18 -3 3 3 -1 9 9 -11 4 11 15 23 27 19 25 28 22 31

GFSFLT1_prec_radar_117.txt.gz
Reflectivity
-20 -20 -20 -20 -20 -20 -20 -20 -20 -20 -20 -20 -20 -20 -20 -20 -20 -20 -20 -20 -20 -9 22 27 11 25 11 39 36 29 30 32
-20 -20 -20 -20 -20 -20 -20 -20 -20 -20 -20 -20 -20 -20 -20 -20 -20 -20 -20 -20 -20 -20 -20 0 -20 -7 18 34 30 -20 -10 44
-20 -20 -20 -20 -20 -20 -20 -20 -20 -20 -20 -20 -20 -20 -20 -20 -20 -20 -20 -20 -20 -20 -20 -20 -20 -20 -20 8 10 1 17 -20
-20 -20 -20 -17 -12 -20 -14 -11 -20 -20 -20 -20 -20 -20 -20 -20 -20 -20 -20 -20 -20 -20 -20 -20 -20 -20 -20 -20 9 5 -5 4
-20 -20 -20 -2 25 1 14 -15 -20 -20 -20 -20 -20 -20 -20 -20 -20 -20 -20 -20 -20 -20 -20 -20 -20 -20 -20 -20 -20 14 11 -11
-6 22 20 2 7 33 20 -3 -20 -20 -20 -20 -20 -20 -20 -20 -20 -20 -20 -20 -20 -20 -20 -20 -5 -12 -20 -19 -20 -20 9 -1
10 10 9 -19 22 13 18 7 -20 -19 -16 -20 -20 -20 -16 -10 -20 -20 -20 -20 -20 -20 -20 -20 -20 -20 -20 -20 -2 5 12 -7
31 28 21 26 33 34 18 8 -17 4 -20 -20 -20 -2 -20 16 12 5 -14 -19 -20 -20 -20 -20 -20 -20 -7 -20 -20 -9 10 6
31 30 23 18 14 28 1 -18 -1 -20 -20 -20 -20 6 -20 -7 -16 -18 -5 -16 -18 -20 -20 -20 -18 -20 -20 -9 9 -8 -9 16
32 42 37 21 16 8 -12 -13 -16 -20 -20 -20 -20 -20 -18 -3 5 -20 -17 -20 -11 -2 -20 -20 -20 7 -3 4 13 6 -5 6
17 29 30 30 18 16 8 9 -1 -20 -17 -20 -20 -20 -20 -20 -17 -4 -11 -20 -20 -20 -20 -20 -20 -20 1 14 11 -4 1 17
26 28 33 29 31 29 26 25 17 8 5 -20 -20 -9 -20 -20 -16 -20 -3 -6 -20 -20 -20 -20 -20 -20 -20 -9 2 -1 9 -16
10 16 18 20 16 13 -1 -18 -0 -19 -20 -20 -20 -18 -20 -20 -20 -20 -20 -20 -20 -20 -20 -20 -20 -20 -20 -20 -11 -20 22 -20
-20 -14 -4 4 9 -17 -20 -20 -20 -20 -20 -20 -20 -16 -7 -6 -19 -20 -20 -20 -20 -20 -20 -20 -20 -20 -20 -20 -20 16 11 10
-20 -20 -20 -12 -17 -17 -20 -20 -20 -20 -20 -5 -20 -20 -20 -20 -20 -11 -20 -20 -20 -20 -20 -20 -20 -20 -20 -20 -20 -20 -9 -6
-20 -20 -12 -20 -7 -20 -20 -20 -14 -20 -20 -20 -14 -19 -20 -20 -20 -20 -20 -20 -20 -20 -20 -20 -18 -18 -11 -20 -20 -20 -20 -20
-20 -20 -20 -4 -1 -17 -20 -2 -5 -20 -4 -14 -20 -20 -20 -20 -20 -20 -20 -20 -20 -20 -20 -20 -20 4 4 0 -6 1 3 4
-20 -20 -17 -15 -6 4 -3 2 -20 -20 -20 -20 -20 -20 -20 -20 -20 -20 -20 -20 -20 -20 -20 -20 -20 -8 6 9 14 10 21 29
-20 -18 -20 -20 -13 7 -12 6 -7 -19 -13 -6 -19 -19 -11 -20 -20 -20 -20 -20 -20 -20 -20 -20 -20 -7 14 20 13 13 20 23

GFSFLT1_prec_radar_123.txt.gz
Reflectivity
-20 -20 -20 -20 -20 -20 -20 -17 -20 -6 -20 -20 -20 -20 -20 -15 -20 -20 -20 -20 -20 -20 -20 -20 -20 -20 2 27 27 15 9 37
-20 -20 -20 -20 -20 -20 -20 -20 -4 3 -20 -20 -20 -20 -20 -20 -20 -20 -20 -20 -20 -20 -20 -20 -20 -20 -20 -20 -20 -13 2 27
-20 -20 -20 -20 -20 -20 -20 -20 -20 -13 -20 5 -20 -20 -20 -20 -20 -20 -20 -20 -20 -20 -20 -20 -20 -20 -20 -20 -20 -20 13 -15
-20 -20 -20 -20 -20 -20 -20 -20 -20 -20 -20 -20 -20 -20 -20 -20 -20 -20 -20 -20 -20 -20 -20 -20 -20 -20 -20 -11 -5 -20 -20 4
-20 -20 -20 -20 -20 -20 -20 -20 -20 -17 -10 -10 -20 -20 -20 -20 -13 -20 -20 -20 -20 -20 -20 -20 -17 -3 -1 -18 -19 1 -9 -16
-20 -20 -20 -20 -20 -20 -20 -20 -20 -20 4 -13 -7 -18 -1 3 -8 -8 -20 -20 -20 -20 -20 -20 -19 -19 -19 -4 3 6 0 -6
-20 -20 -15 -20 -17 -20 -16 -20 -19 -20 -0 -4 -16 11 33 11 18 9 -19 -20 -20 -20 -20 -20 -20 -6 -2 -13 -4 -5 6 8
-9 -9 -12 -9 -17 -20 -20 -1 28 11 -20 -14 -9 30 26 25 13 7 -11 -20 -20 -20 -20 -20 -20 -5 -7 -5 -1 -4 -5 3
-12 -19 -19 -19 -19 -20 -20 -20 -20 -20 11 8 18 16 7 19 -14 3 -7 -12 -20 -20 -20 -20 -20 -20 -20 -18 -2 1 3 6
-20 -20 -20 -20 -20 -20 -20 -19 -20 -19 -10 -8 10 6 -17 5 16 -3 -2 -20 -20 -20 -20 -20 -20 -20 -20 -12 -18 -18 -2 7
-20 -20 -20 -12 -20 -20 -20 -15 -3 -3 -1 -2 1 -2 -18 -12 -14 -5 -20 -20 -20 -20 -20 -20 -20 -20 -20 -20 -19 -20 -20 -10
-20 -20 -20 -20 -20 -20 -6 -10 -1 -3 -15 -8 -17 3 13 1 -4 -10 -12 -20 -20 -20 -7 -2 -2 -1 -20 -20 -10 -7 -9 -20
-20 -20 -20 -20 -20 -8 -3 -15 -3 -2 0 -1 -2 -4 -1 -20 -4 -19 -20 -15 -20 -20 -7 -8 -16 3 -5 -2 0 0 -11 1
-20 -20 -20 -19 -1 -3 -3 -5 -4 -4 -9 -7 -7 -18 -20 -8 -20 -12 -20 -20 -20 -20 -20 -8 6 -15 2 -0 -9 -20 -20 -5
-20 -20 -20 -19 -17 -2 -5 -9 -20 -20 -20 -20 -17 -20 -20 -20 -20 -20 -20 -20 -20 -20 -20 -20 3 -18 -20 2 -2 -20 -20 -20
-20 -20 -9 -8 -20 -20 -20 -20 -20 -20 -20 -20 -20 -20 -20 -20 -20 -20 -20 -20 -20 -20 -20 -20 -7 1 7 -7 -5 -2 -20 -20
-20 -20 -20 -16 -11 -20 -20 -20 -20 -20 -20 -20 -20 -17 -20 -20 -20 -20 -20 -20 -20 -20 -20 -20 -20 -20 -12 -10 -20 -3 -13 -20
-20 -20 -1 -2 -3 -9 -20 -20 -20 -20 -20 -20 -20 -20 -10 -9 -20 -20 -20 -20 -8 -4 -4 -15 -2 -6 -20 -20 -20 -19 -20 -20
-17 -20 -20 -11 -15 3 3 -20 -20 -20 -20 -20 -20 -16 -12 -20 -20 -20 -20 -20 -7 -1 -0 -5 -0 2 -20 -20 -20 -20 -20 -20

GFSFLT1_prec_radar_126.txt.gz
Reflectivity
-20 -20 -20 -20 -20 -20 -20 -20 -20 -20 -20 5 6 -4 -19 -20 -20 -20 -20 -20 -20 -20 -20 -20 -20 -20 -20 -20 -20 -19 21 -1
-20 -20 -20 -20 -20 -20 -20 -20 -20 -20 -20 -20 2 -6 -19 -20 -20 -20 -20 -20 -20 -20 -20 -20 -20 -20 -20 -20 -20 -18 7 13
-20 -20 -20 -20 -20 -20 -20 -20 -20 -20 -20 -20 -20 -8 6 -20 -10 -11 -20 -20 -20 -20 -8 -14 -20 -9 -17 -20 -20 -20 -20 9
-20 -20 -20 -20 -20 -20 -20 -20 -20 -20 -20 -20 -20 -9 -16 -20 -20 -20 -20 -20 -20 -20 -20 -9 -8 -20 -8 -20 -20 1 -14 -20
-20 -20 -20 -20 -20 -20 -20 -20 -20 -20 -20 -20 -20 -20 10 -20 -20 -8 -20 -20 -20 -20 -7 -5 2 -1 -0 -1 1 0 -0 -6
-19 -20 -19 -11 -20 -20 -20 -20 -20 -20 -20 -20 -20 -20 -20 1 -20 -20 -20 -20 -20 -19 -17 -16 0 -3 -3 1 -1 -4 -2 8
-20 -20 -20 -20 -20 -20 -7 -13 -20 -20 -20 -16 -16 -20 -20 -20 -20 -20 -8 -9 -20 -14 -14 -16 -4 -2 -3 -0 2 -0 0 2
-20 -20 -20 -20 -14 -14 -0 -0 -0 -6 -20 -20 -19 -16 -20 -14 4 27 2 23 -3 2 -20 -20 -20 -6 -5 -2 -1 -2 2 6
-20 -20 -20 -20 -11 -20 -20 -20 -20 -20 -20 -20 -20 -19 -5 -6 -1 -8 8 27 29 13 -15 -4 -4 -5 -2 -3 -5 -1 3 -17
-20 -20 -20 -20 -20 -20 -20 -20 -20 -20 -20 -20 -8 -6 -1 -0 -5 -3 -2 24 25 -4 1 0 -1 -3 -3 -5 -4 -2 -2 -0
-20 -20 -19 -20 -20 -20 -4 -20 -5 -20 -1 -3 -10 -6 -5 -1 -16 -4 -12 -3 5 -3 1 2 -2 -1 -4 -2 -0 1 2 3
-20 -20 -20 -20 -20 -20 -15 -3 -10 1 -2 -10 -6 -0 -6 -5 -2 -1 -5 -0 -2 -2 -2 0 -3 -1 -4 -2 -3 -6 -1 -1
-20 -20 -20 -20 -20 -20 -6 -4 -4 -3 -5 -3 -3 -10 -20 -19 -3 -8 -16 -10 -10 -20 -7 -4 -7 -3 -3 -3 -2 -3 -3 -4
-20 -20 -20 -20 -20 -20 -11 -6 -15 -20 -20 -20 -20 -20 -20 -18 -20 -9 -20 -20 -20 -20 -20 -3 -17 -6 -3 -4 -15 -16 -8 -1
-20 -20 -20 -20 -18 -20 -20 -20 -20 -20 -20 -20 -20 -20 -20 -20 -20 -20 -20 -20 -20 -20 -20 -18 -20 -20 -20 -8 -7 -7 -6 -1
-20 -20 -20 -20 -11 -20 -20 -20 -20 -20 -20 -20 -20 -20 -20 -20 -20 -20 -20 -20 -20 -20 -20 -20 -20 -20 -20 -3 -6 -4 -13 -18
-20 -20 -20 -20 -9 -20 -20 -20 -20 -20 -20 -20 -20 -20 -20 -20 -20 -20 -20 -20 -20 -20 -20 -20 -20 -20 -20 -20 -19 -7 -5 -2
-16 -20 -20 -3 -17 -20 -10 -20 -20 -20 -20 -20 -20 -20 -20 -20 -20 -20 -20 -20 -20 -20 -16 -20 -20 -20 -20 -20 -20 -8 -7 1
-20 -7 -20 -20 -16 -2 -20 -20 -20 -20 -20 -20 -20 -20 -20 -20 -20 -20 -20 -6 -11 -3 -20 -4 -19 -11 -20 -20 -20 -14 1 -0

GFSFLT1_prec_radar_129.txt.gz
Reflectivity
-20 -20 -20 -20 -20 -20 -20 -20 -20 -20 -20 -20 -20 -18 -9 -9 -1 -4 -10 -17 -20 -20 -20 -20 -20 -20 -20 -20 9 9 1 -15
-20 -20 -20 -20 -20 -20 -20 -20 -20 -20 -20 -20 -20 -20 -20 -12 8 -6 -17 -20 -20 -20 -20 -20 -20 -20 -20 -20 -20 -20 -20 4
-20 -20 -20 -20 -20 -20 -20 -20 -20 -20 -20 -20 -20 -20 -20 -20 -12 -0 -20 -20 -20 -20 -12 -15 -12 -19 -20 -8 -8 -2 -20 -20
-20 -20 -20 -20 -20 -20 -20 -20 -20 -20 -20 -20 -20 -20 -20 -20 -20 -20 -7 -18 -20 -20 -20 -20 -20 -12 -9 -14 -1 -0 2 -20
-20 -20 -20 -20 -20 -20 -20 -20 -20 -20 -20 -20 -20 -20 -20 -20 -20 -20 -20 -20 -20 -20 -20 -20 -19 -20 -15 -4 1 2 1 -4
-20 -20 -20 -20 -20 -20 -20 -20 -20 -20 -20 -20 -20 -20 -20 -20 -20 -20 -20 -20 -20 -20 -20 -20 -20 -20 -13 -3 -2 -2 -0 1
-20 -20 -20 -20 -20 -20 -20 -20 -20 -0 -14 -16 -20 -20 -20 -20 -20 -20 -17 -20 -20 -20 -20 -20 -20 -12 -4 -1 -2 -1 -0 1
-20 -20 -20 -20 -20 -20 -20 -20 -20 -16 -12 -15 -20 -12 -20 -20 -20 -20 -8 -2 -5 2 1 -18 -20 -10 -5 7 -4 -7 -1 3
-20 -20 -20 -20 -20 -20 -20 -15 -20 -19 -20 -20 -20 -20 -20 -20 -20 -20 -6 -2 -1 -1 1 -4 -13 3 4 -20 -13 1 -2 -0
-20 -20 -20 -20 -20 -20 -20 -20 -20 -20 -20 -20 -20 -20 -20 -15 -17 -6 -5 -0 -6 -5 -6 0 22 24 -13 -5 -1 1 -11 -2
-20 -20 -20 -20 -20 -20 -15 -20 -20 -20 -20 -20 -16 -20 -7 -20 -20 -19 -3 1 -3 -1 8 4 16 -3 -15 -5 -7 -6 -3 -4
-14 -20 -20 -20 -20 -20 -20 -20 -15 -20 -20 -20 -20 -20 -20 -18 -14 -16 -5 -18 -20 -16 11 -3 -4 -4 -0 -4 -14 -14 -5 -3
-20 -20 -20 -20 -20 -20 -20 -20 -20 -20 -20 -20 -20 -20 -20 -20 -19 -9 -6 -0 -20 -20 -8 -4 -1 -19 -6 0 -2 -3 -5 -4
-20 -20 -20 -20 -20 -20 -20 -6 -20 -20 -20 -20 -20 -20 -20 -20 -20 -20 -20 -20 -11 -9 -19 -18 -20 -20 -20 -7 -0 -1 -3 -2
-20 -20 -20 -20 -20 -20 -20 -18 -20 -20 -20 -20 -20 -20 -20 -20 -20 -20 -20 -20 -13 -20 -14 -20 -20 -20 -20 -20 -12 -15 -6 -12
-20 -20 -20 -20 -20 -20 -20 -20 -20 -20 -20 -20 -20 -20 -20 -20 -20 -20 -20 -20 -20 -20 -20 -20 -20 -20 -20 -20 -20 -20 -20 -20
-20 -20 -20 -20 -20 -20 -20 -20 -20 -20 -20 -20 -20 -20 -20 -20 -20 -20 -20 -20 -20 -20 -20 -20 -20 -20 -20 -20 -20 -18 -5 -20
-20 -20 -5 -18 -20 -20 -20 -20 -20 -20 -20 -20 -20 -20 -20 -20 -20 -20 -20 -18 -17 -16 -16 -20 -20 -20 -20 -20 -20 -18 -17 -6
-20 -7 -1 -20 -20 -20 -20 -20 -20 -20 -20 -20 -20 -20 -20 -20 -20 -14 -1 1 2 1 -20 -10 -20 -20 -20 -20 -20 -19 -0 -3

GFSFLT1_prec_radar_132.txt.gz
Reflectivity
-20 -20 -20 -20 -20 -20 -20 -20 -20 -20 -20 -20 -20 -20 -20 -20 -20 -20 -20 -7 16 5 -17 -20 -20 -20 -20 -20 -20 -20 -20 -20
-20 -20 -20 -20 -20 -20 -20 -20 -20 -20 -20 -20 -20 -20 -20 -20 -20 -20 -20 -20 -20 10 -20 -20 -20 -20 -20 -20 -20 -20 -20 -20
-20 -20 -20 -20 -20 -20 -20 -20 -20 -20 -20 -20 -20 -20 -20 -20 -20 -20 -20 -20 -1 -3 -20 -20 -20 -20 -20 -20 -20 -18 -20 -20
-20 -20 -20 -20 -20 -20 -20 -20 -20 -20 -20 -20 -20 -20 -20 -20 -20 -20 -20 -20 -20 -20 -20 -20 -20 -20 -20 -20 -20 -20 -20 -20
-20 -20 -20 -20 -20 -20 -20 -20 -20 -20 -20 -20 -20 -20 -20 -20 -20 -20 -20 -20 -20 -20 -20 -20 -20 -20 -20 -20 -19 -16 -2 1
-20 -20 -20 -20 -20 -20 -20 -20 -20 -20 -20 -20 -20 -20 -20 -20 -20 -20 -20 -20 -20 -20 -20 -20 -20 -20 -20 -12 -12 -10 -12 4
-20 -20 -20 -20 -20 -20 -20 -20 -20 -20 -20 -20 -20 -20 -20 -20 -20 -20 -20 -20 -20 -20 -20 -20 -20 -20 -20 -20 -11 -20 -20 -1
-20 -20 -20 -20 -20 -20 -20 -20 -20 -20 -20 -20 -20 -20 -20 -20 -20 -20 -20 -20 -20 -20 -18 -17 -20 -20 -20 -20 -20 -20 -20 -15
-20 -20 -20 -20 -20 -20 -20 -20 -20 -20 -20 -20 -20 -20 -20 -20 -20 -20 -7 -20 -20 -19 -2 -20 -20 -20 -20 -16 -17 -16 -20 -8
-20 -20 -20 -20 -20 -20 -20 -20 -20 -20 -20 -20 -20 -20 -20 -20 -15 -20 -20 -20 -14 -20 -20 -7 -19 -17 -20 -4 -4 -20 -20 -20
-20 -20 -20 -20 -20 -20 -20 -20 -20 -20 -20 -20 -20 -20 -20 -20 -20 -20 -8 -20 -20 -20 -12 3 -3 -13 -5 -6 -12 -20 -10 -20
-20 -20 -20 -20 -20 -20 -20 -20 -20 -20 -20 -20 -20 -20 -20 -20 -19 -20 -7 -20 -20 -20 -20 -16 -8 1 11 6 -6 -20 -17 -8
-20 -20 -20 -20 -20 -20 -20 -20 -20 -20 -20 -20 -20 -20 -20 -20 -20 -20 -20 -20 -20 -20 -20 -20 -20 8 12 10 3 -1 3 4
-20 -20 -20 -20 -20 -20 -20 -20 -20 -20 -20 -20 -20 -20 -20 -20 -20 -20 -20 -20 -20 -19 -20 -19 1 -6 0 -15 -20 -20 -13 -20
-20 -20 -20 -20 -20 -20 -20 -20 -20 -20 -20 -20 -20 -20 -20 -20 -20 -20 -20 -20 -20 -16 -18 -20 -1 8 -0 -13 -10 -16 -20 -20
-20 -20 -20 -20 -20 -20 -20 -20 -20 -20 -20 -20 -20 -20 -20 -20 -20 -20 -20 -20 -20 -20 -20 -20 -20 -3 -0 -16 -6 -20 -20 -20
-20 -20 -20 -20 -20 -20 -20 -20 -20 -20 -20 -20 -20 -20 -20 -20 -20 -20 -20 -20 -20 -20 -20 -20 -20 -20 -20 -20 -20 -20 -20 -20
-20 -20 -20 -20 -20 -19 -8 -20 -20 -20 -20 -20 -20 -20 -20 -20 -20 -20 -20 -20 -20 -20 -20 -12 -20 -20 -20 -20 -17 -18 -19 -14
-20 -20 -20 -20 -15 6 9 -16 -20 -20 -20 -20 -20 -20 -20 -20 -20 -16 -3 -20 -20 -20 -20 -20 -19 -20 -20 -20 -20 -20 -1 -14

GFSFLT1_prec_radar_135.txt.gz
Reflectivity
-20 -20 -20 -20 -20 -20 -20 -20 -20 -20 -20 -20 -20 -20 -20 -20 -20 -20 -20 -20 -20 -20 -19 -20 11 -20 -20 -20 -20 -20 -20 -20
-20 -20 -20 -20 -20 -20 -20 -20 -20 -20 -20 -20 -20 -20 -20 -20 -20 -20 -20 -20 -20 -20 -20 -20 -20 -18 -5 -20 -20 -20 -20 -20
-20 -20 -20 -20 -20 -20 -20 -20 -20 -20 -20 -20 -20 -20 -20 -20 -20 -20 -20 -20 -20 -20 -20 -20 -20 -8 -20 -20 -20 -20 -20 -20
-20 -20 -20 -20 -20 -20 -20 -20 -20 -20 -20 -20 -20 -20 -20 -20 -20 -20 -20 -20 -20 -20 -20 -20 -20 -20 -20 -20 -20 -20 -14 -20
-20 -20 -20 -20 -20 -20 -20 -20 -20 -20 -20 -20 -20 -20 -20 -20 -20 -20 -20 -20 -20 -20 -20 -20 -20 -20 -20 -20 -20 -20 -20 -20
-20 -20 -20 -20 -20 -20 -20 -20 -20 -20 -20 -20 -20 -20 -20 -20 -20 -20 -20 -20 -20 -20 -20 -20 -20 -20 -20 -20 -2 9 2 -8
-20 -20 -20 -20 -20 -20 -20 -20 -20 -20 -20 -20 -20 -20 -20 -20 -20 -20 -20 -20 -20 -20 -20 -20 -20 -20 -20 -20 -19 -18 -7 7
-20 -20 -20 -20 -20 -20 -20 -20 -20 -20 -20 -20 -20 -20 -20 -20 -20 -20 -20 -20 -20 -20 -20 -20 -20 -20 -20 -20 -12 -20 -20 -20
-20 -20 -20 -20 -20 -20 -20 -20 -20 -20 -20 -20 -20 -20 -20 -20 -20 -20 -20 -20 -20 -20 -20 -20 -20 -20 -20 -20 -20 -20 -20 -20
-20 -20 -20 -20 -20 -20 -20 -20 -20 -20 -20 -20 -20 -20 -20 -20 -20 -20 -20 -20 -20 -20 -20 -20 -20 -15 -1 -20 -13 -20 -20 -12
-20 -20 -20 -20 -20 -20 -20 -20 -20 -20 -20 -20 -20 -20 -20 -20 -20 -20 -20 -20 -20 -20 -20 -20 -20 -20 -10 4 10 2 -14 -4
-20 -20 -20 -20 -20 -20 -20 -20 -20 -20 -20 -20 -20 -20 -20 -20 -20 -20 -20 -20 -20 -20 -20 -20 -20 -20 -14 13 16 2 9 7
-20 -20 -20 -20 -20 -20 -20 -20 -20 -20 -20 -20 -20 -20 -20 -20 -20 -20 -20 -20 -20 -20 -20 -20 -20 -20 -20 2 15 7 -20 6
-20 -20 -20 -20 -20 -20 -20 -20 -20 -20 -20 -20 -20 -20 -20 -20 -20 -20 -20 -20 -20 -20 -20 -18 -20 -20 -20 -19 -8 11 10 -9
-14 -20 -20 -20 -20 -20 -20 -20 -20 -20 -20 -20 -20 -20 -20 -20 -20 -20 -20 -20 -20 -20 -20 -20 -20 -20 -20 -18 -18 -1 13 10
12 -6 -20 -20 -20 -20 -20 -20 -20 -20 -20 -20 -20 -20 -20 -20 -20 -20 -20 -20 -20 -20 -20 -20 -20 -20 -20 -20 -8 -8 -17 -12
-20 -20 -20 -20 -20 -20 -20 -20 -20 -20 -20 -20 -20 -20 -20 -20 -20 -20 -20 -20 -20 -20 -20 -20 -20 -20 -20 2 -20 -20 -11 -20
-20 -20 -20 -20 -20 -20 -20 -20 -20 -20 -20 -20 -20 -20 -20 -20 -20 -20 -20 -20 -20 -20 -20 -20 -20 -20 -20 -20 3 -17 -1 -19
-20 -15 -20 -20 -20 -20 -20 -20 -20 -20 -20 -20 -20 -20 -20 -20 -20 -20 -20 -20 -20 -20 -20 -20 -20 -20 -20 -20 -20 -19 -20 -20

GFSFLT1_prec_radar_138.txt.gz
Reflectivity
-20 -20 -20 -20 -20 -20 -20 -20 -20 -20 -20 -20 -20 -20 -20 -20 -20 -20 -20 -20 -20 -20 -20 -20 -20 -20 -20 -20 -20 -20 -20 -20
-20 -20 -20 -20 -20 -20 -20 -20 -20 -20 -20 -20 -20 -20 -20 -20 -20 -20 -20 -20 -20 -20 -20 -20 -20 -20 -20 -20 -20 -20 -20 -20
-20 -20 -20 -20 -20 -20 -20 -20 -20 -20 -20 -20 -20 -20 -20 -20 -20 -20 -20 -20 -20 -20 -20 -20 -20 -20 -20 -20 -20 -20 -20 -20
-20 -20 -20 -20 -20 -20 -20 -20 -20 -20 -20 -20 -20 -20 -20 -20 -20 -20 -20 -20 -20 -20 -20 -20 -20 -20 -20 -20 -20 -20 -15 -20
-20 -20 -20 -20 -20 -20 -20 -20 -20 -20 -20 -20 -20 -20 -20 -20 -20 -20 -20 -20 -20 -20 -20 -20 -20 -20 -20 -20 -20 -20 -20 -20
-20 -20 -20 -20 -20 -20 -20 -20 -20 -20 -20 -20 -20 -20 -20 -20 -20 -20 -20 -20 -20 -20 -20 -20 -20 -20 -20 -20 -20 -20 -12 -8
-20 -20 -20 -20 -20 -20 -20 -20 -20 -20 -20 -20 -20 -20 -20 -20 -20 -20 -20 -20 -20 -20 -20 -20 -20 -20 -20 -20 -19 -20 -20 -20
-20 -20 -20 -20 -20 -20 -20 -20 -20 -20 -20 -20 -20 -20 -20 -20 -20 -20 -20 -20 -20 -20 -20 -20 -20 -20 -20 -20 -20 -20 -20 -16
-20 -20 -20 -20 -20 -20 -20 -20 -20 -20 -20 -20 -20 -20 -20 -20 -20 -20 -20 -20 -20 -20 -20 -20 -20 -20 -20 -20 -20 -20 -19 -20
-20 -20 -20 -20 -20 -20 -20 -20 -20 -20 -20 -20 -20 -20 -20 -20 -20 -20 -20 -20 -20 -20 -20 -20 -20 -20 -20 -11 0 3 4 -15
-20 -20 -20 -20 -20 -20 -20 -20 -20 -20 -20 -20 -20 -20 -20 -20 -20 -20 -20 -20 -20 -20 -20 -20 -20 -20 -20 -6 -13 1 7 -5
-20 -20 -20 -20 -20 -20 -20 -20 -20 -20 -20 -20 -20 -20 -20 -20 -20 -20 -20 -20 -20 -20 -20 -20 -20 -20 -20 -20 -19 -17 -10 -1
-20 -20 -20 -20 -20 -20 -20 -20 -20 -20 -20 -20 -20 -20 -20 -20 -20 -20 -20 -20 -20 -20 -20 -20 -20 -20 -20 -20 -20 -20 -20 -19
-20 -20 -20 -19 -19 -20 -20 -20 -20 -20 -20 -20 -20 -20 -20 -20 -20 -20 -20 -20 -20 -20 -20 -20 -20 -20 -20 -20 -20 -20 -20 -19
-20 -20 -20 8 -14 -20 -20 -20 -20 -20 -20 -20 -20 -20 -20 -20 -20 -20 -20 -20 -20 -20 -20 -20 -20 -20 -20 -20 -20 -20 -20 -20
-5 18 18 10 9 14 -6 -20 -20 -20 -20 -20 -20 -20 -20 -20 -20 -20 -20 -20 -20 -20 -20 -20 -20 -3 -20 -20 -20 -20 -20 -20
17 26 8 11 8 12 2 -20 -20 -20 -20 -20 -20 -20 -20 -20 -20 -20 -20 -20 -20 -20 -20 -20 -20 -18 5 -20 -19 -20 -20 -20
22 6 11 12 10 19 -20 -20 -20 -20 -20 -20 -20 -20 -20 -20 -20 -20 -20 -20 -20 -20 -20 -20 -20 -18 -7 -10 -20 -20 -20 -20
5 -1 13 25 20 11 -18 -20 -20 -20 -20 -20 -20 -20 -20 -20 -20 -20 -20 -20 -20 -20 -20 -20 -20 -20 -11 -20 -20 -20 -20 -20

GFSFLT1_prec_radar_141.txt.gz
Reflectivity
-20 -20 -20 -20 -20 -20 -20 -20 -20 -20 -20 -20 -20 -20 -20 -20 -20 -20 -20 -20 -20 -20 -20 -20 -20 -20 -20 -20 -20 -20 -20 -20
1 -10 -20 -20 -20 -20 -20 -20 -20 -20 -20 -20 -20 -20 -20 -20 -20 -20 -20 -20 -20 -20 -20 -20 -20 -20 -20 -20 -20 -20 -20 -20
-10 -20 -20 -20 -20 -20 -20 -20 -20 -20 -20 -20 -20 -20 -20 -20 -20 -20 -20 -20 -20 -20 -20 -20 -20 -20 -20 -20 -20 -20 -20 -20
-20 -20 -20 -20 -20 -20 -20 -20 -20 -20 -20 -20 -20 -20 -20 -20 -20 -20 -20 -20 -20 -20 -20 -20 -20 -20 -20 -20 -20 -20 -20 -20
-20 -20 -20 -20 -20 -20 -20 -20 -20 -20 -20 -20 -20 -20 -20 -20 -20 -20 -20 -20 -20 -20 -20 -20 -20 -20 -20 -20 -20 -20 -20 -20
-20 -20 -20 -20 -20 -20 -20 -20 -20 -20 -20 -20 -20 -20 -20 -20 -20 -20 -20 -20 -20 -20 -20 -20 -20 -20 -20 -20 -20 -20 -20 -3
-20 -20 -20 -20 -20 -20 -20 -20 -20 -20 -20 -20 -20 -20 -20 -20 -20 -20 -20 -20 -20 -20 -20 -20 -20 -20 -20 -20 -20 -20 -20 -20
-20 -20 -20 -20 -20 -20 -20 -20 -20 -20 -20 -20 -20 -20 -20 -20 -20 -20 -20 -20 -20 -20 -20 -20 -20 -20 -20 -20 -20 -20 -20 -20
-20 -20 -20 -20 -20 -20 -20 -20 -20 -20 -20 -20 -20 -20 -20 -20 -20 -20 -20 -20 -20 -20 -20 -20 -20 -20 -20 -20 -6 1 -20 -20
-20 -20 -20 -20 -20 -20 -20 -20 -20 -20 -20 -20 -20 -20 -20 -20 -20 -20 -20 -20 -20 -20 -20 -20 -20 -20 -20 -20 -18 -1 -20 -14
-20 -20 -20 -20 -20 -20 -20 -20 -20 -20 -20 -20 -20 -20 -20 -20 -20 -20 -20 -20 -20 -20 -20 -20 -20 -20 -20 -20 -20 -20 -20 -20
-20 -20 -20 -20 -20 -20 -20 -20 -20 -20 -20 -20 -20 -20 -20 -20 -20 -20 -20 -20 -20 -20 -20 -20 -20 -20 -20 -20 -20 -20 -20 -20
-20 -20 -20 -20 -20 -20 -20 -20 -20 -20 -20 -20 -20 -20 -20 -20 -20 -20 -20 -20 -20 -20 -20 -20 -20 -20 -20 -20 -20 -20 -20 -20
-20 -20 -20 -20 -20 -20 -20 -20 -20 -20 -20 -20 -20 -20 -20 -20 -20 -20 -20 -20 -20 -20 -20 -20 -20 -20 -20 -20 -20 -20 -20 -20
-20 -20 -20 -20 -20 -20 -20 -20 -20 -20 -20 -20 -20 -20 -20 -20 -20 -20 -20 -20 -20 -20 -20 -20 -20 -20 -20 -20 -20 -20 -20 -20
-20 -20 -20 -20 -19 -7 -1 2 -19 -20 -20 -20 -20 -20 -20 -20 -20 -20 -20 -20 -20 -20 -20 -20 -10 -20 -20 -20 -20 -20 -20 -20
5 -20 4 37 33 29 21 5 6 6 1 -20 -20 -20 -20 -20 -20 -20 -20 -20 -20 -20 -20 -20 -20 -4 -20 -20 -20 -20 -20 -20
-7 -20 -19 -9 -5 -2 12 10 21 6 -20 -20 -20 -20 -20 -20 -20 -20 -20 -20 -20 -20 -20 -20 -20 -20 -20 -20 -20 -20 -20 -20
-14 -17 -5 -3 -16 -20 25 34 29 -6 -10 -20 -20 -20 -20 -20 -20 -20 -20 -20 -20 -20 -20 -20 -20 -20 -20 -20 -20 -20 -20 -20

GFSFLT1_prec_radar_144.txt.gz
Reflectivity
-20 -20 -20 -20 -20 -20 -20 -20 -20 -20 -20 -20 -20 -20 -20 -20 -20 -20 -20 -20 -20 -20 -20 -20 -20 -20 -20 -20 -20 -20 -20 -20
-20 -3 0 -20 -20 -20 -20 -20 -20 -20 -20 -20 -20 -20 -20 -20 -20 -20 -20 -20 -20 -20 -20 -20 -20 -20 -20 -20 -20 -20 -20 -20
-18 6 -7 -20 -20 -20 -20 -20 -20 -20 -20 -20 -20 -20 -20 -20 -20 -20 -20 -20 -20 -20 -20 -20 -20 -20 -20 -20 -20 -20 -20 -20
-20 -3 -20 -20 -20 -20 -20 -20 -20 -20 -20 -20 -20 -20 -20 -20 -20 -20 -20 -20 -20 -20 -20 -20 -20 -20 -20 -20 -20 -20 -9 -20
-20 -19 -20 -20 -20 -20 -20 -20 -20 -20 -20 -20 -20 -20 -20 -20 -20 -20 -20 -20 -20 -20 -20 -20 -20 -20 -20 -20 -20 -20 -20 -7
-20 -20 -20 -20 -20 -20 -20 -20 -20 -20 -20 -20 -20 -20 -20 -20 -20 -20 -20 -20 -20 -20 -20 -20 -20 -20 -20 -20 -20 -20 -20 -20
-20 -20 -20 -13 -20 -20 -20 -20 -20 -20 -20 -20 -20 -20 -20 -20 -20 -20 -20 -20 -20 -20 -20 -20 -20 -20 -20 -20 -20 -20 -20 -20
-20 -20 -20 -20 -20 -20 -20 -20 -20 -20 -20 -20 -20 -20 -20 -20 -20 -20 -20 -20 -20 -20 -20 -20 -20 -20 -20 -20 -20 -20 -20 -20
-20 -20 -20 -20 -20 -20 -20 -20 -20 -20 -20 -20 -20 -20 -20 -20 -20 -20 -20 -20 -20 -20 -20 -20 -20 -20 -20 -20 -20 -20 -20 -20
-20 -20 -20 -20 -20 -20 -20 -20 -20 -20 -20 -20 -20 -20 -20 -20 -20 -20 -20 -20 -20 -20 -20 -20 -20 -20 -20 -20 -20 -20 -20 -20
-20 -20 -20 -20 -20 -20 -20 -20 -20 -20 -20 -20 -20 -20 -20 -20 -20 -20 -20 -20 -20 -20 -20 -20 -20 -20 -20 -20 -20 -20 -20 -20
-20 -20 -20 -20 -20 -20 -20 -19 -4 -20 -20 -20 -20 -20 -20 -20 -20 -20 -20 -20 -20 -20 -20 -20 -20 -20 -20 -20 -20 -20 -20 -20
-20 -1 6 -6 2 -10 -20 -20 -20 -20 -20 -20 -20 -20 -20 -20 -20 -20 -20 -20 -20 -20 -20 -20 -20 -20 -20 -20 -20 -20 -20 -20
-20 -20 -20 -20 -17 -4 -20 -20 -20 -20 -20 -20 -20 -20 -20 -20 -20 -20 -20 -20 -20 -20 -20 -20 -20 -20 -20 -20 -20 -20 -20 -20
-20 -20 -20 -20 -8 -20 -20 -20 -20 -20 -5 -13 -13 -20 -20 -20 -20 -20 -20 -20 -20 -20 -20 -20 -20 -20 -20 -20 -20 -20 -20 -20
-20 -3 -3 2 -1 12 9 -20 -16 10 5 13 -14 -20 -20 -20 -20 -20 -20 -20 -20 -20 -20 -20 -20 -20 -20 -20 -20 -20 -20 -20
4 8 2 11 9 -20 -20 -12 9 -7 -1 12 3 -9 -8 -19 -9 -10 -20 -20 -20 -20 -20 -20 -20 -20 -20 -20 -20 -20 -20 -20
2 33 16 20 18 6 -13 -5 -20 -20 -9 11 -20 -19 -20 -20 -20 -20 -20 -20 -20 -20 -20 -20 -20 -20 -20 -20 -20 -20 -20 -20
22 18 23 19 29 20 -17 -19 -15 20 27 13 3 -16 -11 -20 -20 -20 -20 -20 -20 -20 -20 -20 -20 -20 -20 -20 -20 -20 -20 -20